Flag Weather past 2 weeks in Springfield, Illinois, U.S.A.

Now
37 °F

Overcast.


Feels Like: 29 °F
Forecast: 39 / 56 °F
Wind: 13 mph from South

Location: Capital Airport

Current Time: Nov 21, 2014 at 6:26:00 PM

Latest Report: Nov 21, 2014 at 5:52 PM


Visibility: 10 mi

Pressure: 30.32 "Hg

Humidity: 42%

Dew point: 16 °F

Location of SpringfieldLocation

Historic Weather in Springfield — Graph

°F

Springfield temperature yesterday

Maximum temperature yesterday: 35 °F (at 2:52 PM)
Minimum temperature yesterday: 15 °F (at 6:52 AM)
Average temperature yesterday: 25 °F

Past Weeks' High & Low Weather Summary

 TemperatureHumidityPressure
High67 °F (Nov 10, 12:52 PM)92% (Nov 16, 2:52 AM)30.48 "Hg (Nov 16, 2:52 AM)
Low12 °F (Nov 18, 4:52 AM)34% (Nov 21, 2:52 PM)29.52 "Hg (Nov 10, 3:52 PM)
Average32 °F65%30.15 "Hg
* Reported Nov 6 4:52 PM — Nov 21 4:52 PM, Springfield, Weather by CustomWeather, © 2014

Note: Actual official high and low records may vary slightly from our data, if they occured in-between our weather recording intervals... More about our weather records

Advertising

Springfield weather history for previous 24 hours

 ConditionsComfort  
Time TempWeatherWind HumidityBarometerVisibility
4:52 PM
Nov 21
38 °FOvercast.12 mph39%30.33 "Hg10 mi
3:52 PM38 °FPartly sunny.13 mph39%30.34 "Hg10 mi
2:52 PM38 °FSunny.14 mph34%30.35 "Hg10 mi
1:52 PM38 °FPassing clouds.15 mph36%30.37 "Hg10 mi
12:52 PM37 °FSunny.10 mph36%30.40 "Hg10 mi
11:52 AM34 °FSunny.13 mph37%30.44 "Hg10 mi
10:52 AM30 °FSunny.10 mph43%30.46 "Hg10 mi
9:52 AM27 °FSunny.15 mph51%30.47 "Hg10 mi
8:52 AM22 °FSunny.15 mph60%30.48 "Hg10 mi
7:52 AM19 °FSunny.12 mph68%30.47 "Hg10 mi
6:52 AM17 °FSunny.8 mph70%30.45 "Hg10 mi
5:52 AM16 °FClear.7 mph71%30.44 "Hg10 mi
4:52 AM14 °FClear.6 mph73%30.43 "Hg10 mi
3:52 AM14 °FClear.No wind77%30.43 "Hg10 mi
2:52 AM14 °FClear.3 mph77%30.43 "Hg10 mi
1:52 AM15 °FClear.6 mph74%30.41 "Hg10 mi
12:52 AM17 °FClear.5 mph68%30.40 "Hg10 mi
11:52 PM
Nov 20
15 °FClear.3 mph70%30.38 "Hg10 mi
10:52 PM21 °FClear.3 mph62%30.36 "Hg10 mi
9:52 PM21 °FClear.3 mph60%30.34 "Hg10 mi
8:52 PM23 °FClear.5 mph57%30.32 "Hg10 mi
7:52 PM23 °FClear.7 mph57%30.30 "Hg10 mi
6:52 PM26 °FClear.5 mph50%30.29 "Hg10 mi
Weather by CustomWeather, © 2014

See weather overviewHow to use our weather pages